Regional Weather Roundup
Issued by NWS

Home | Current Version | Previous Version | Text Only | Print | Product List | Glossary On
Versions: 1 2 3 4 5 6 7 8 9 10 11 12 13 14 15 16 17 18 19 20 21 22 23 24 25 26 27 28 29 30 31 32 33 34 35 36 37 38 39 40 41 42 43 44 45 46 47 48 49 50
000
ASUS43 KMKX 302011
RWRWI

WISCONSIN REGIONAL WEATHER ROUNDUP
NATIONAL WEATHER SERVICE MILWAUKEE/SULLIVAN WI
300 PM CDT SAT JUL 30 2016

NOTE: "FAIR" INDICATES FEW OR NO CLOUDS BELOW 12,000 FEET WITH NO
SIGNIFICANT WEATHER AND/OR OBSTRUCTIONS TO VISIBILITY.

WIZ001-002-006>008-014>016-023>028-302100-
NORTHWEST WISCONSIN

CITY           SKY/WX    TMP DP  RH WIND       PRES   REMARKS
SUPERIOR ARPT  PTSUNNY   70  62  75 NE10      30.04F
ASHLAND        PTSUNNY   78  65  63 N12       30.04F HX  80
HAYWARD        CLOUDY    78  55  44 VRB5      30.05F
SIREN          MOSUNNY   79  55  44 SE8       30.03F
CUMBERLAND     PTSUNNY   77  55  47 S7        30.05S
RICE LAKE      MOSUNNY   78  57  49 SE8       30.05F
CHETEK         MOSUNNY   77  60  56 SE7       30.04S
LADYSMITH      PTSUNNY   79  54  41 SE5       30.07S HX  80
EAU CLAIRE     PTSUNNY   78  61  55 SE8       30.02S HX  80
MENOMONIE      PTSUNNY   83  59  44 E6        30.03S HX  83
NEW RICHMOND   MOSUNNY   80  58  46 SE9       30.02F HX  81
OSCEOLA        PTSUNNY   78  60  54 SE6       30.04S
$$

WIZ003>005-009-010-017-018-302100-
NORTH CENTRAL WISCONSIN

CITY           SKY/WX    TMP DP  RH WIND       PRES   REMARKS
MANITOWISH WTR MOSUNNY   76  54  46 SE6       30.07S
ARBOR VITAE    PTSUNNY   77  54  44 SE7       30.08S
WOODRUFF       PTSUNNY   77  54  44 SE7       30.08S
RHINELANDER    MOSUNNY   76  52  43 SE3       30.09S
EAGLE RIVER    MOSUNNY   76  49  37 SE7       30.08S
LAND O LAKES   MOSUNNY   75  49  40 SE7       30.09F
PHILLIPS       SUNNY     77  56  49 SE5       30.06S
TOMAHAWK       CLOUDY    73  59  62 SE3       30.08S
MEDFORD        CLOUDY    77  60  55 E6        30.06S
MERRILL        PTSUNNY   74  60  61 E7        30.07S
$$

WIZ029-030-035-036-043>047-302100-
CENTRAL WISCONSIN

CITY           SKY/WX    TMP DP  RH WIND       PRES   REMARKS
WAUSAU         CLOUDY    76  57  51 SE10      30.05S
MOSINEE        PTSUNNY   77  57  50 SE7       30.07S
MARSHFIELD     SUNNY     78  60  53 SE10      30.05S
STEVENS POINT  MOSUNNY   76  55  49 E10       30.06S
WAUPACA        PTSUNNY   80  57  44 N7        30.05F HX  81
WAUTOMA        MOSUNNY   77  59  53 E8        30.05S
WISC RAPIDS    SUNNY     75  58  55 SE8       30.06S
CAMP DOUGLAS   PTSUNNY   79  64  61 S7        30.03F HX  81
$$

WIZ011>013-019>022-031-037>040-048>050-302100-
NORTHEAST WISCONSIN

CITY           SKY/WX    TMP DP  RH WIND       PRES   REMARKS
ANTIGO         CLOUDY    74  56  53 CALM      30.09S
SHAWANO        SUNNY     79  53  41 E9        30.07S
OCONTO         SUNNY     75  51  42 E9        30.06S
STURGEON BAY   SUNNY     76  55  48 E8        30.07S
GREEN BAY      SUNNY     76  57  51 N13G22    30.05S
MANITOWOC      SUNNY     74  56  53 MISG      30.05S
APPLETON       PTSUNNY   77  50  38 E8        30.04S
CLINTONVILLE   SUNNY     79  52  38 NE6       30.06S
OSHKOSH        SUNNY     77  56  48 E10       30.04S
$$

WIZ032>034-041-042-053>061-302100-
SOUTHWEST WISCONSIN

CITY           SKY/WX    TMP DP  RH WIND       PRES   REMARKS
LA CROSSE      CLOUDY    78  62  57 E3        30.01F HX  80
SPARTA         CLOUDY    80  62  53 SE8       30.03F HX  81
VIROQUA        PTSUNNY   80  62  55 SE6       30.04F HX  81
BOSCOBEL       MOSUNNY   81  62  52 VRB7      30.01F HX  82
PRAIRIE DU CHI PTSUNNY   77  62  59 NE6       30.00F
PLATTEVILLE    MOSUNNY   79  64  60 E7        30.02S HX  80
$$

WIZ056-057-062-063-064-067-068-302100-
SOUTH CENTRAL WISCONSIN

CITY           SKY/WX    TMP DP  RH WIND       PRES   REMARKS
REEDSBURG      MOSUNNY   78  62  57 E6        30.03S
BARABOO/DELLS  PTSUNNY   78  61  54 E6        30.04S HX  80
LONE ROCK      MOSUNNY   79  62  56 E6        30.02F HX  80
MINERAL POINT  MOSUNNY   79  63  57 E7        30.03S HX  80
MADISON        CLOUDY    79  61  53 NE7       30.01F HX  80
MIDDLETON      CLOUDY    77  61  56 NE5       30.03S
WATERTOWN      MOSUNNY   77  58  51 NE8       30.02S
MONROE         CLOUDY    73  63  68 NE5       30.01F
JANESVILLE     MOSUNNY   81  59  47 E12       30.01  HX  81
$$

WIZ051-052-058>065-066-070>072-302100-
SOUTHEAST WISCONSIN

CITY           SKY/WX    TMP DP  RH WIND       PRES   REMARKS
MILWAUKEE      PTSUNNY   75  62  64 NE10      30.02F
WAUKESHA       MOSUNNY   73  57  56 E13       30.03F
MILWAUKEE/TIMM SUNNY     73  55  53 NE9       30.03F
RACINE         MOSUNNY   74  62  66 NE12      30.03S
BURLINGTON     MOSUNNY   78  60  54 E8        30.01S
KENOSHA        MOSUNNY   76  62  62 NE10      30.02S
FOND DU LAC    SUNNY     79  57  46 N13       30.04S HX  80
SHEBOYGAN      SUNNY     73  58  59 NE12      30.05R
WEST BEND      PTSUNNY   77  57  50 E7        30.03F
JUNEAU         SUNNY     76  58  53 N9        30.04F
$$

LSZ147-162-302100-
LAKE SUPERIOR

STATION/POSITION TIME  TEMP    WIND        PRES    WAVE
                       AIR SEA DIR/SP/G            HT/PER
                 (UTC) (F)     (DEG/KT/KT) (MB)    (FT/S)
W MID LAKE BUOY  1950   65 65   80/  4/  6 1017.7F   0
DEVILS ISLAND    2000   67      50/  5/  5 1017.7F
PORT WING        1900   64      30/ 11/ 13 1017.6F
SAXON HARBOR     1900   71      50/ 10/ 12 1017.3
$$

LMZ867-665-643>646-302100-
LAKE MICHIGAN

STATION/POSITION TIME  TEMP    WIND        PRES    WAVE
                       AIR SEA DIR/SP/G            HT/PER
                 (UTC) (F)     (DEG/KT/KT) (MB)    (FT/S)
CHAMBERS ISLAND  1900   72      30/ 10/ 14 1017.9F
S GREEN BAY BUOY 1800   72 71   60/ 14/ 16 1017.7F
N MID LAKE BUOY  1950   70 70   20/ 10/ 12 1017.4F   1/ 3
NORTHPORT PIER   1900   71      70/  9/ 11 1018.3F
SISTER BAY       1921   81     110/ 10/ 18   N/A
ALGOMA LAKESHORE 1913           50/ 16/ 18   N/A
KEWAUNEE LAKESHO 1900   72      30/  7/ 11 1017.3F
SHEBOYGAN LAKESH 2000   66     350/ 10/ 11 1017.5S
PORT WASHINGTON  1940   72      50/  8/ 10 1017.6S
ATWATER BUOY     1900   67 65   20/  8/ 10 1018.6F
MILWAUKEE LAKESH 1910   68      30/ 10/ 11   N/A
S MID LAKE BUOY  1950   69 73   50/  6/  8 1015.4F   2/ 4
KENOSHA   LAKESH 2000   70      30/  9/ 11 1015.9S
$$

TC  - TEMPERATURE IN CELSIUS
VSB - VISIBILITY IN STATUTE MILES
WCI - WIND CHILL INDEX
HX  - HEAT INDEX




USA.gov is the U.S. government's official web portal to all federal, state and local government web resources and services.